[[{"header":{"parameterUnit":"m.s-1","parameterCategory":1,"la1":30.2991,"la2":30.254,"lo1":-89.0895,"lo2":-89.0444,"dy":0.0017,"dx":0.0017,"nx":28,"ny":28,"refTime":"2023-09-20T03:00:00:Z","depth":0,"parameterNumber":2,"parameterNumberName":"U-component_of_WINDS"},"data":[0,0,0,0,0,0,0,0,0,0,0,0,0,0,0,0,0,0,0,0,0,0,0,0,0,0,0,0,0,0,0,0,0,0,0,0,0,0,0,0,0,0,0,0,0,0,0,0,0,0,0,0,0,0,0,0,0,0,-4.5731,-4.5731,0,-4.5741,-4.5741,-4.5741,-4.557,-4.5566,-4.5561,-4.5557,-4.5568,-4.5572,-4.5577,0,0,0,0,0,0,0,0,0,0,0,0,0,-4.5565,-4.5569,-4.5731,-4.5731,-4.5731,-4.5741,-4.5741,-4.5741,-4.5571,-4.5565,-4.556,-4.5555,-4.5566,-4.5572,-4.5577,0,0,0,0,0,0,0,0,0,0,0,0,0,-4.5612,-4.557,-4.5731,-4.5647,-4.564,-4.5741,-4.5741,-4.5741,-4.5572,-4.5565,-4.5558,-4.5552,-4.5564,-4.5571,-4.5578,-4.5759,0,0,-4.5599,-4.5602,0,0,0,0,0,0,0,0,-4.561,-4.5619,-4.566,-4.5653,-4.5645,-4.5647,-4.5686,-4.5747,-4.5574,-4.5598,-4.5557,-4.5549,-4.56,-4.5603,-4.562,-4.5759,-4.576,-4.56,-4.5604,-4.5607,-4.5609,0,0,0,0,0,0,0,-4.5607,-4.5617,-4.5735,-4.566,-4.5652,-4.5609,-4.5609,-4.5697,-4.5638,-4.5595,-4.5583,-4.5587,-4.5595,-4.5614,-4.5619,-4.576,-4.5599,-4.5606,-4.561,-4.5612,-4.6047,-4.6054,0,0,0,0,0,0,-4.5615,-4.5616,-4.5734,-4.5735,-4.561,-4.5618,-4.5617,-4.5654,-4.5636,-4.5627,-4.5592,-4.5579,-4.5606,-4.5612,-4.5619,-4.5829,-4.5607,-4.5613,-4.5617,-4.604,-4.6049,-4.6057,0,0,0,0,0,0,-4.5612,-4.5627,-4.5734,-4.5672,-4.5682,-4.5628,-4.5671,-4.5657,-4.5677,-4.5634,-4.5622,-4.5623,-4.5601,-4.5609,-4.5725,-4.5827,-4.5616,-4.5622,-4.6031,-4.6042,-4.6053,-4.6252,0,0,0,0,0,0,-4.5608,-4.5627,-4.5695,-4.5675,-4.5686,-4.5841,-4.5677,-4.5663,-4.5689,-4.5671,-4.566,-4.5651,-4.5596,-4.5716,-4.5732,-4.5833,-4.5628,-4.6022,-4.6036,-4.6049,-4.6236,-4.6269,-4.6297,0,0,0,0,0,-4.5603,-4.5751,-4.57,-4.5715,-4.5771,-4.5847,-4.5853,-4.5786,-4.5698,-4.5766,-4.5738,-4.5652,-4.5814,-4.5729,-4.5746,-4.5851,-4.6015,-4.6032,-4.6048,-4.6223,-4.6263,-4.6296,0,0,0,0,0,0,-4.5786,-4.5747,-4.5689,-4.5836,-4.5846,-4.5818,-4.5902,-4.583,-4.5865,-4.5847,-4.5762,-4.5761,-4.5891,-4.5882,-4.5788,-4.6024,-4.5899,-4.592,-4.6026,-4.6063,-4.6093,-4.6092,-4.5634,0,0,0,0,0,-4.5844,-4.5909,-4.5871,-4.6004,-4.6012,-4.5957,-4.5987,-4.5934,-4.5941,-4.5945,-4.5925,-4.5936,-4.5988,-4.6025,-4.6071,-4.6234,-4.6229,-4.6314,-4.6344,-4.6369,-4.6389,-4.6474,-4.6511,-4.6112,-4.6111,-4.6111,0,0,-4.5963,-4.595,-4.5996,-4.6041,-4.6042,-4.6111,-4.5961,-4.6041,-4.6091,-4.5957,-4.6065,-4.6051,-4.6057,-4.6197,-4.6257,-4.6193,-4.6498,-4.6391,-4.6411,-4.6416,-4.6495,-4.6533,-4.6566,-4.6123,-4.6121,-4.6119,0,0,-4.6216,-4.6213,-4.6323,-4.6328,-4.6331,-4.6293,-4.632,-4.6303,-4.6288,-4.6395,-4.6295,-4.6354,-4.6447,-4.6455,-4.6471,-4.6727,-4.6649,-4.6745,-4.6903,-4.6987,-4.7018,-4.7045,-4.7137,-4.7171,-4.6764,-4.6764,-4.6765,0,-4.6365,-4.6465,-4.6389,-4.6475,-4.6498,-4.6378,-4.6489,-4.6497,-4.6517,-4.6535,-4.6463,-4.6576,-4.6572,-4.6712,-4.6774,-4.6791,-4.6819,-4.6746,-4.702,-4.7046,-4.7071,-4.7157,-4.7192,-4.6776,-4.6775,-4.6773,-4.6772,0,-4.6647,-4.6718,-4.6806,-4.6828,-4.686,-4.6958,-4.6897,-4.6939,-4.6883,-4.6853,-4.6963,-4.6954,-4.6996,-4.7025,-4.6971,-4.7158,-4.7118,-4.7034,-4.6906,-4.7122,-4.7201,-4.7234,-4.6793,-4.6788,-4.6785,-4.6782,0,0,-4.7017,-4.6994,-4.7028,-4.7036,-4.7031,-4.7084,-4.7177,-4.7218,-4.7255,-4.7272,-4.7348,-4.7429,-4.7351,-4.737,-4.7316,-4.739,-4.7593,-4.7297,-4.7296,-4.7353,-4.7798,-4.7861,-4.79,-4.7541,-4.7547,-4.7552,-4.7797,0,-4.7263,-4.742,-4.7354,-4.7518,-4.7582,-4.7469,-4.755,-4.7556,-4.753,-4.7581,-4.7551,-4.7611,-4.7504,-4.7514,-4.7582,-4.7555,-4.7682,-4.7536,-4.7611,-4.7614,-4.7613,-4.7942,-4.8009,-4.8241,-4.7828,-4.7833,-4.7837,0,-4.7571,-4.7601,-4.7771,-4.7753,-4.7778,-4.7852,-4.7883,-4.7934,-4.7938,-4.7913,-4.7935,-4.7864,-4.7954,-4.7826,-4.7948,-4.7851,-4.7877,-4.7868,-4.7876,-4.788,-4.7739,-4.7956,-4.8313,-4.8349,-4.7885,-4.7881,-4.7878,0,-4.7824,-4.7906,-4.8018,-4.8028,-4.8011,-4.8066,-4.8061,-4.8058,-4.8087,-4.8115,-4.8132,-4.8171,-4.8192,-4.8223,-4.8165,-4.8077,-4.8295,-4.8163,-4.8278,-4.828,-4.8329,-4.8327,-4.8697,-4.8347,-4.8346,-4.8346,-4.8345,0,-4.8106,-4.8214,-4.8131,-4.82,-4.8318,-4.8241,-4.836,-4.8343,-4.8342,-4.8405,-4.831,-4.8372,-4.8291,-4.8345,-4.83,-4.8408,-4.8418,-4.8401,-4.8388,-4.841,-4.8413,-4.8427,-4.8409,-4.8355,-4.8353,-4.8351,-4.8349,0,-4.8408,-4.8357,-4.8472,-4.8446,-4.8442,-4.853,-4.8508,-4.8571,-4.8538,-4.862,-4.8635,-4.8583,-4.8642,-4.8587,-4.8642,-4.8612,-4.8756,-4.872,-4.8755,-4.8745,-4.8863,-4.8853,-4.9255,-4.9304,-4.8923,-4.8927,-4.893,0,-4.8592,-4.8672,-4.8655,-4.8691,-4.8692,-4.8751,-4.8779,-4.8707,-4.874,-4.8751,-4.8813,-4.8863,-4.8899,-4.8998,-4.8966,-4.9008,-4.8972,-4.911,-4.8977,-4.8997,-4.8974,-4.897,-4.8977,-4.9137,-4.9142,-4.9145,-4.9148,0,-4.8923,-4.8893,-4.8937,-4.8974,-4.901,-4.9035,-4.9053,-4.9087,-4.9013,-4.9055,-4.9114,-4.9142,-4.9198,-4.925,-4.9282,-4.9276,-4.9201,-4.919,-4.9219,-4.9242,-4.9259,-4.9252,-4.8829,-4.9181,-4.9178,-4.9176,-4.9174,-4.9172,-4.9171,-4.9237,-4.9235,-4.9288,-4.9293,-4.9312,-4.9369,-4.9343,-4.9391,-4.9431,-4.9385,-4.9457,-4.9458,-4.9493,-4.9497,-4.9552,-4.9494,-4.9536,-4.9547,-4.9558,-4.9576,-4.9251,-4.9558,-4.9557,-4.9556,-4.9555,-4.9554,0,-4.9496,-4.9489,-4.9539,-4.9566,-4.9608,-4.9532,-4.9547,-4.9587,-4.9651,-4.9659,-4.9696,-4.9764,-4.9813,-4.9785,-4.9827,-4.9876,-4.9842,-4.989,-4.9885,-4.9885,-4.9625,-4.9596,-4.9916,-4.9916,-4.9916,-4.9916,-4.9916,-4.9916,-4.967,-4.9778,-4.9749,-4.9858,-4.985,-4.992,-4.9935,-4.9952,-4.9957,-5.0036,-5.0077,-5.0057,-5.0051,-5.0091,-5.0133,-5.0123,-5.0143,-5.0204,-5.0182,-4.9939,-4.9904,-4.987,-4.9842,-5.0209,-5.0209,-5.0437,-5.0439,-5.0441]},{"header":{"parameterUnit":"m.s-1","parameterCategory":1,"la1":30.2991,"la2":30.254,"lo1":-89.0895,"lo2":-89.0444,"dy":0.0017,"dx":0.0017,"nx":28,"ny":28,"refTime":"2023-09-20T03:00:00:Z","depth":0,"parameterNumber":3,"parameterNumberName":"V-component_of_WINDS"},"data":[0,0,0,0,0,0,0,0,0,0,0,0,0,0,0,0,0,0,0,0,0,0,0,0,0,0,0,0,0,0,0,0,0,0,0,0,0,0,0,0,0,0,0,0,0,0,0,0,0,0,0,0,0,0,0,0,0,0,-3.3406,-3.3406,0,-3.3407,-3.3407,-3.3407,-3.3388,-3.3388,-3.3387,-3.3387,-3.3386,-3.3387,-3.3387,0,0,0,0,0,0,0,0,0,0,0,0,0,-3.3385,-3.3385,-3.3406,-3.3406,-3.3406,-3.3407,-3.3407,-3.3407,-3.3388,-3.3388,-3.3387,-3.3387,-3.3386,-3.3386,-3.3387,0,0,0,0,0,0,0,0,0,0,0,0,0,-3.3391,-3.3385,-3.3406,-3.3397,-3.3396,-3.3407,-3.3407,-3.3407,-3.3389,-3.3388,-3.3387,-3.3386,-3.3386,-3.3386,-3.3387,-3.3406,0,0,-3.3389,-3.3389,0,0,0,0,0,0,0,0,-3.339,-3.3391,-3.3398,-3.3398,-3.3397,-3.3397,-3.3399,-3.3407,-3.3389,-3.3391,-3.3387,-3.3386,-3.339,-3.339,-3.3392,-3.3406,-3.3406,-3.3389,-3.339,-3.339,-3.339,0,0,0,0,0,0,0,-3.339,-3.3391,-3.3406,-3.3398,-3.3397,-3.3392,-3.3392,-3.3401,-3.3395,-3.3391,-3.339,-3.339,-3.339,-3.3392,-3.3392,-3.3406,-3.3389,-3.339,-3.339,-3.339,-3.3433,-3.3434,0,0,0,0,0,0,-3.3391,-3.3391,-3.3406,-3.3407,-3.3392,-3.3393,-3.3393,-3.3398,-3.3395,-3.3394,-3.3391,-3.3389,-3.3391,-3.3391,-3.3392,-3.3412,-3.339,-3.3391,-3.3391,-3.3433,-3.3434,-3.3434,0,0,0,0,0,0,-3.3391,-3.3393,-3.3406,-3.3398,-3.34,-3.3394,-3.3399,-3.3398,-3.34,-3.3395,-3.3393,-3.3394,-3.339,-3.3391,-3.3402,-3.3412,-3.3391,-3.3391,-3.3432,-3.3433,-3.3434,-3.3455,0,0,0,0,0,0,-3.339,-3.3393,-3.3401,-3.3399,-3.34,-3.3418,-3.34,-3.3399,-3.3401,-3.3399,-3.3397,-3.3396,-3.339,-3.3402,-3.3403,-3.3413,-3.3392,-3.3431,-3.3432,-3.3434,-3.3453,-3.3456,-3.3459,0,0,0,0,0,-3.3389,-3.3407,-3.3401,-3.3403,-3.341,-3.3419,-3.3419,-3.3412,-3.3402,-3.341,-3.3406,-3.3396,-3.3411,-3.3403,-3.3405,-3.3414,-3.343,-3.3432,-3.3434,-3.3452,-3.3456,-3.3459,0,0,0,0,0,0,-3.341,-3.3406,-3.34,-3.3418,-3.3419,-3.3415,-3.3425,-3.3417,-3.342,-3.3418,-3.3408,-3.3408,-3.342,-3.3419,-3.3409,-3.3432,-3.3419,-3.3421,-3.3432,-3.3436,-3.3439,-3.3438,-3.3393,0,0,0,0,0,-3.3417,-3.3424,-3.3421,-3.3436,-3.3437,-3.3431,-3.3434,-3.3428,-3.3428,-3.3428,-3.3426,-3.3426,-3.343,-3.3433,-3.3437,-3.3453,-3.3451,-3.346,-3.3463,-3.3466,-3.3467,-3.3473,-3.3477,-3.344,-3.344,-3.344,0,0,-3.343,-3.3429,-3.3435,-3.344,-3.344,-3.3447,-3.3431,-3.344,-3.3444,-3.343,-3.344,-3.3438,-3.3437,-3.345,-3.3456,-3.3449,-3.3477,-3.3468,-3.347,-3.347,-3.3475,-3.3479,-3.3482,-3.3441,-3.3441,-3.3441,0,0,-3.3458,-3.3459,-3.3471,-3.3471,-3.3471,-3.3467,-3.3469,-3.3467,-3.3465,-3.3475,-3.3464,-3.3469,-3.3477,-3.3476,-3.3477,-3.3502,-3.3493,-3.3504,-3.3519,-3.3525,-3.3528,-3.353,-3.3538,-3.354,-3.3506,-3.3506,-3.3506,0,-3.3475,-3.3485,-3.3478,-3.3486,-3.3488,-3.3476,-3.3486,-3.3487,-3.3488,-3.3489,-3.3482,-3.349,-3.3489,-3.3501,-3.3507,-3.3509,-3.351,-3.3503,-3.3528,-3.3531,-3.3533,-3.3539,-3.3542,-3.3507,-3.3507,-3.3507,-3.3506,0,-3.3504,-3.3512,-3.3521,-3.3523,-3.3526,-3.3535,-3.3528,-3.3532,-3.3525,-3.3521,-3.353,-3.3528,-3.353,-3.3533,-3.3527,-3.3543,-3.3539,-3.353,-3.3517,-3.3538,-3.3544,-3.3546,-3.3509,-3.3508,-3.3508,-3.3507,0,0,-3.3545,-3.3541,-3.3545,-3.3544,-3.3543,-3.3548,-3.3556,-3.3558,-3.3561,-3.3562,-3.3567,-3.3574,-3.3565,-3.3566,-3.356,-3.3565,-3.3583,-3.3555,-3.3555,-3.3559,-3.3598,-3.3603,-3.3606,-3.3577,-3.3577,-3.3578,-3.3597,0,-3.3571,-3.3585,-3.3578,-3.3593,-3.3598,-3.3585,-3.3592,-3.3591,-3.3587,-3.3591,-3.3586,-3.359,-3.358,-3.358,-3.3585,-3.3579,-3.359,-3.3578,-3.358,-3.358,-3.3579,-3.361,-3.3616,-3.3634,-3.36,-3.36,-3.36,0,-3.3602,-3.3604,-3.3619,-3.3615,-3.3617,-3.3623,-3.3623,-3.3627,-3.3625,-3.3622,-3.3622,-3.3614,-3.362,-3.3608,-3.3615,-3.3607,-3.3608,-3.3605,-3.3605,-3.3604,-3.3591,-3.3607,-3.364,-3.3642,-3.3604,-3.3604,-3.3604,0,-3.3628,-3.3634,-3.3643,-3.3643,-3.3639,-3.3643,-3.3642,-3.3639,-3.364,-3.364,-3.3641,-3.3642,-3.3642,-3.3642,-3.3634,-3.3626,-3.3641,-3.3629,-3.3637,-3.3637,-3.364,-3.364,-3.3671,-3.3643,-3.3643,-3.3643,-3.3643,0,-3.3655,-3.3665,-3.3654,-3.366,-3.3669,-3.366,-3.367,-3.3666,-3.3664,-3.3668,-3.3657,-3.3661,-3.365,-3.3652,-3.3646,-3.3651,-3.3652,-3.3648,-3.3646,-3.3648,-3.3649,-3.3647,-3.3645,-3.3644,-3.3643,-3.3643,-3.3643,0,-3.3685,-3.3679,-3.3688,-3.3682,-3.3681,-3.3688,-3.3683,-3.3687,-3.3682,-3.3687,-3.3688,-3.368,-3.3681,-3.3673,-3.3674,-3.3669,-3.3678,-3.3674,-3.3678,-3.3677,-3.3684,-3.3683,-3.3715,-3.3718,-3.369,-3.369,-3.369,0,-3.3702,-3.3709,-3.3704,-3.3706,-3.3705,-3.3708,-3.3709,-3.37,-3.3701,-3.3699,-3.3703,-3.3704,-3.3704,-3.3707,-3.37,-3.37,-3.3695,-3.3706,-3.3695,-3.3696,-3.3693,-3.3692,-3.3692,-3.3708,-3.3709,-3.3709,-3.3709,0,-3.3733,-3.3729,-3.3731,-3.3732,-3.3733,-3.3733,-3.3732,-3.3734,-3.3724,-3.3726,-3.3727,-3.3727,-3.3727,-3.3728,-3.3726,-3.3723,-3.3714,-3.3713,-3.3715,-3.3716,-3.3718,-3.3715,-3.3683,-3.3712,-3.3712,-3.3712,-3.3711,-3.3711,-3.3756,-3.376,-3.3757,-3.3759,-3.3757,-3.3756,-3.376,-3.3755,-3.3756,-3.3755,-3.375,-3.3752,-3.3748,-3.3745,-3.3743,-3.3743,-3.3738,-3.374,-3.3741,-3.3741,-3.3742,-3.3719,-3.3743,-3.3743,-3.3743,-3.3743,-3.3743,0,-3.3784,-3.3781,-3.3783,-3.3782,-3.3783,-3.3775,-3.3773,-3.3775,-3.3777,-3.3774,-3.3774,-3.3775,-3.3775,-3.3768,-3.3767,-3.3769,-3.3764,-3.3769,-3.3768,-3.3767,-3.3748,-3.3746,-3.3772,-3.3772,-3.3772,-3.3772,-3.3772,-3.3772,-3.3799,-3.3805,-3.3801,-3.3806,-3.3803,-3.3805,-3.3804,-3.3803,-3.38,-3.3802,-3.3802,-3.3798,-3.3793,-3.3791,-3.379,-3.3788,-3.3787,-3.3792,-3.3789,-3.3771,-3.3768,-3.3765,-3.3763,-3.3793,-3.3793,-3.3807,-3.3807,-3.3807]}]]